Location: Friedrichshafen
(47.6598°N, 9.4819°E)
Time: 04:36:12
(UTC+01:00)

ISS - Pass Details

Date: 07 January 2018
Orbit: 402 x 407 km, 51.6° (Epoch: 18 January)

Event Time Altitude Azimuth Distance (km) Brightness Sun altitude
Exits shadow 05:56:17 34° 31° (NNE) 693 -2.5 -21.6°
Drops below altitude 10° 05:58:43 10° 70° (ENE) 1,470 -0.2 -21.2°
Sets 06:00:54 0° 79° (ENE) 2,332 1.2 -20.8°
